When you browse on this site, cookies collect data to enhance your experience and personalize the content and advertising you see.
Visit our Privacy Policy to learn more. By continuing to use the site, you agree to this use of cookies and data.
  • In Portugal
  • List of Countries
  • For 7 days
  • Water Temperature
  • Weather Map
  • Weather Widgets
  • user-avatar
    Login

    Hourly Weather Sankt Polten

    Today, 8 December, Sunday

    Time Temperature Precipitation Wind Pressure Humidity
    00:00 +5°C° 0 mm 2 mps 738 mmHg 92%
    01:00 +5°C° 0 mm 2 mps 738 mmHg 92%
    02:00 +5°C° 0 mm 2 mps 737 mmHg 92%
    03:00 +4°C° 0 mm 2 mps 737 mmHg 91%
    04:00 +4°C° 0 mm 2 mps 736 mmHg 91%
    05:00 +4°C° 0 mm 2 mps 736 mmHg 90%
    06:00 +4°C° 0 mm 2 mps 736 mmHg 90%
    07:00 +5°C° 0 mm 1 mps 737 mmHg 90%
    08:00 +6°C° 0 mm 1 mps 736 mmHg 87%
    09:00 +7°C° 0 mm 1 mps 736 mmHg 83%
    10:00 +8°C° 0 mm 1 mps 735 mmHg 80%
    11:00 +9°C° 0 mm 1 mps 735 mmHg 77%
    12:00 +9°C° 0 mm 0 mps 734 mmHg 74%
    13:00 +10°C° 0 mm 0 mps 733 mmHg 71%
    14:00 +9°C° 0 mm 1 mps 733 mmHg 76%
    15:00 +8°C° 0 mm 1 mps 733 mmHg 81%
    16:00 +7°C° 0 mm 1 mps 733 mmHg 86%
    17:00 +6°C° 0 mm 1 mps 733 mmHg 86%
    18:00 +6°C° 0 mm 1 mps 732 mmHg 86%
    19:00 +5°C° 0 mm 2 mps 732 mmHg 86%
    20:00 +6°C° 0 mm 1 mps 732 mmHg 83%
    21:00 +6°C° 0 mm 1 mps 731 mmHg 81%
    22:00 +6°C° 0 mm 1 mps 731 mmHg 78%
    23:00 +6°C° 0 mm 1 mps 730 mmHg 76%

    Tomorrow, 9 December, Monday

    Time Temperature Precipitation Wind Pressure Humidity
    00:00 +6°C° 0 mm 1 mps 730 mmHg 75%
    01:00 +6°C° 0 mm 1 mps 729 mmHg 74%
    02:00 +6°C° 0 mm 1 mps 729 mmHg 74%
    03:00 +7°C° 0 mm 1 mps 729 mmHg 74%
    04:00 +7°C° 0 mm 1 mps 729 mmHg 75%
    05:00 +6°C° 0.3 mm 2 mps 729 mmHg 79%
    06:00 +6°C° 0.3 mm 2 mps 729 mmHg 84%
    07:00 +6°C° 0.3 mm 2 mps 729 mmHg 88%
    08:00 +5°C° 0.5 mm 3 mps 730 mmHg 86%
    09:00 +5°C° 0.5 mm 3 mps 730 mmHg 84%
    10:00 +7°C° 0.5 mm 3 mps 730 mmHg 82%
    11:00 +7°C° 0.1 mm 3 mps 729 mmHg 78%
    12:00 +8°C° 0.1 mm 3 mps 729 mmHg 75%
    13:00 +8°C° 0.1 mm 3 mps 729 mmHg 71%
    14:00 +7°C° 0 mm 2 mps 728 mmHg 74%
    15:00 +7°C° 0 mm 2 mps 728 mmHg 78%
    16:00 +6°C° 0 mm 2 mps 728 mmHg 82%
    17:00 +6°C° 0.1 mm 2 mps 728 mmHg 84%
    18:00 +5°C° 0.1 mm 2 mps 729 mmHg 87%
    19:00 +4°C° 0.1 mm 2 mps 730 mmHg 89%
    20:00 +3°C° 0 mm 4 mps 730 mmHg 87%
    21:00 +2°C° 0 mm 5 mps 731 mmHg 85%
    22:00 +2°C° 0 mm 6 mps 731 mmHg 83%
    23:00 +2°C° 0 mm 7 mps 732 mmHg 84%

    Day after tomorrow, 10 December, Tuesday

    Time Temperature Precipitation Wind Pressure Humidity
    00:00 +2°C° 0 mm 7 mps 732 mmHg 86%
    01:00 +1°C° 0 mm 8 mps 733 mmHg 87%
    02:00 +2°C° 0.4 mm 7 mps 733 mmHg 86%
    03:00 +2°C° 0.4 mm 7 mps 734 mmHg 86%
    04:00 +1°C° 0.4 mm 6 mps 735 mmHg 86%
    05:00 +1°C° 0.2 mm 6 mps 736 mmHg 85%
    06:00 -1°C° 0.2 mm 6 mps 737 mmHg 84%
    07:00 -1°C° 0.2 mm 6 mps 738 mmHg 84%
    08:00 -1°C° 0 mm 7 mps 738 mmHg 80%
    09:00 0°C° 0 mm 7 mps 739 mmHg 77%
    10:00 0°C° 0 mm 7 mps 739 mmHg 73%
    11:00 0°C° 0 mm 7 mps 739 mmHg 73%
    12:00 0°C° 0 mm 7 mps 739 mmHg 74%
    13:00 0°C° 0 mm 7 mps 740 mmHg 74%
    14:00 0°C° 0.1 mm 7 mps 740 mmHg 75%
    15:00 -1°C° 0.1 mm 6 mps 740 mmHg 76%
    16:00 -1°C° 0.1 mm 6 mps 740 mmHg 77%
    17:00 0°C° 0 mm 5 mps 741 mmHg 79%
    18:00 -1°C° 0 mm 4 mps 741 mmHg 82%
    19:00 -1°C° 0 mm 4 mps 741 mmHg 84%
    20:00 -1°C° 0 mm 3 mps 741 mmHg 86%
    21:00 -1°C° 0 mm 2 mps 742 mmHg 88%
    22:00 -1°C° 0 mm 2 mps 742 mmHg 90%
    23:00 -2°C° 0 mm 2 mps 741 mmHg 91%

    11 December, Wednesday

    Time Temperature Precipitation Wind Pressure Humidity
    00:00 0°C° 0 mm 1 mps 741 mmHg 91%
    01:00 0°C° 0 mm 1 mps 741 mmHg 91%
    02:00 -1°C° 0 mm 1 mps 740 mmHg 90%
    03:00 -1°C° 0 mm 1 mps 740 mmHg 88%
    04:00 -1°C° 0 mm 1 mps 739 mmHg 87%
    05:00 -1°C° 0 mm 1 mps 739 mmHg 85%
    06:00 -1°C° 0 mm 1 mps 739 mmHg 83%
    07:00 -1°C° 0 mm 1 mps 738 mmHg 81%
    08:00 0°C° 0 mm 1 mps 738 mmHg 76%
    09:00 +1°C° 0 mm 1 mps 738 mmHg 71%
    10:00 +3°C° 0 mm 1 mps 737 mmHg 65%
    11:00 +3°C° 0 mm 1 mps 737 mmHg 62%
    12:00 +4°C° 0 mm 1 mps 736 mmHg 58%
    13:00 +5°C° 0 mm 1 mps 735 mmHg 55%
    14:00 +4°C° 0 mm 1 mps 734 mmHg 61%
    15:00 +3°C° 0 mm 1 mps 734 mmHg 68%
    16:00 +1°C° 0 mm 1 mps 733 mmHg 74%
    17:00 +1°C° 0 mm 1 mps 733 mmHg 74%
    18:00 0°C° 0 mm 1 mps 733 mmHg 74%
    19:00 0°C° 0 mm 1 mps 733 mmHg 73%
    20:00 0°C° 0 mm 1 mps 733 mmHg 72%
    21:00 0°C° 0 mm 1 mps 734 mmHg 70%
    22:00 +1°C° 0 mm 1 mps 734 mmHg 68%
    23:00 +2°C° 0 mm 1 mps 733 mmHg 74%

    12 December, Thursday

    Time Temperature Precipitation Wind Pressure Humidity
    00:00 +2°C° 0 mm 1 mps 733 mmHg 79%
    01:00 +3°C° 0 mm 1 mps 733 mmHg 85%
    02:00 +3°C° 0.1 mm 1 mps 733 mmHg 87%
    03:00 +3°C° 0.1 mm 1 mps 733 mmHg 90%
    04:00 +4°C° 0.1 mm 1 mps 732 mmHg 93%
    05:00 +4°C° 0 mm 1 mps 733 mmHg 94%
    06:00 +3°C° 0 mm 1 mps 733 mmHg 94%
    07:00 +3°C° 0 mm 1 mps 733 mmHg 95%
    08:00 +4°C° 0 mm 1 mps 733 mmHg 91%
    09:00 +4°C° 0 mm 2 mps 733 mmHg 87%
    10:00 +4°C° 0 mm 2 mps 733 mmHg 82%
    11:00 +3°C° 0.1 mm 3 mps 733 mmHg 83%
    12:00 +3°C° 0.1 mm 4 mps 733 mmHg 84%
    13:00 +3°C° 0.1 mm 4 mps 733 mmHg 85%
    14:00 +1°C° 0 mm 4 mps 733 mmHg 86%
    15:00 +2°C° 0 mm 3 mps 733 mmHg 87%
    16:00 +2°C° 0 mm 2 mps 734 mmHg 87%
    17:00 +1°C° 0 mm 2 mps 734 mmHg 88%
    18:00 +1°C° 0 mm 2 mps 734 mmHg 88%
    19:00 -1°C° 0 mm 2 mps 734 mmHg 88%
    20:00 -1°C° 0 mm 2 mps 733 mmHg 87%
    21:00 +1°C° 0 mm 1 mps 733 mmHg 85%
    22:00 +1°C° 0 mm 1 mps 733 mmHg 84%
    23:00 +1°C° 0 mm 1 mps 732 mmHg 83%

    13 December, Friday

    Time Temperature Precipitation Wind Pressure Humidity
    00:00 -1°C° 0 mm 2 mps 731 mmHg 83%
    01:00 -1°C° 0 mm 2 mps 730 mmHg 83%
    02:00 -1°C° 0 mm 2 mps 729 mmHg 82%
    03:00 -1°C° 0 mm 2 mps 728 mmHg 82%
    04:00 -1°C° 0 mm 2 mps 727 mmHg 81%
    05:00 -1°C° 0 mm 2 mps 726 mmHg 80%
    06:00 +1°C° 0 mm 2 mps 725 mmHg 79%
    07:00 +1°C° 0 mm 2 mps 723 mmHg 78%
    08:00 +2°C° 0 mm 2 mps 723 mmHg 75%
    09:00 +2°C° 0 mm 2 mps 722 mmHg 72%
    10:00 +3°C° 0 mm 2 mps 721 mmHg 70%
    11:00 +4°C° 0 mm 2 mps 721 mmHg 68%
    12:00 +5°C° 0 mm 2 mps 720 mmHg 66%
    13:00 +5°C° 0 mm 2 mps 719 mmHg 64%
    14:00 +5°C° 0.6 mm 2 mps 720 mmHg 73%
    15:00 +4°C° 0.6 mm 2 mps 720 mmHg 83%
    16:00 +3°C° 0.6 mm 2 mps 720 mmHg 92%
    17:00 +2°C° 0.4 mm 3 mps 721 mmHg 92%
    18:00 +1°C° 0.4 mm 4 mps 722 mmHg 91%
    19:00 +1°C° 0.4 mm 5 mps 723 mmHg 90%
    20:00 +1°C° 0.2 mm 5 mps 723 mmHg 91%
    21:00 +1°C° 0.2 mm 4 mps 724 mmHg 92%
    22:00 0°C° 0.2 mm 4 mps 724 mmHg 93%
    23:00 +1°C° 0.2 mm 4 mps 725 mmHg 93%
    Show more